Corning, AR

5:40 PM CST on December 11, 2017 (GMT -0600)
Corning

Weather History for K4M9 - December, 2011

Change the Weather History Date:

Sunday, December 11, 2011

  Actual Average (KARG) Record (KARG)
Temperature  
Mean Temperature 34 °F -  
Max Temperature 42 °F 47 °F 73 °F (1996)
Min Temperature 26 °F 32 °F 17 °F (2000)
Degree Days  
Heating Degree Days 31    
Moisture  
Dew Point 26 °F    
Average Humidity 77    
Maximum Humidity 100    
Minimum Humidity 46    
Precipitation  
Precipitation 0.00 in - - ()
Sea Level Pressure  
Sea Level Pressure 30.50 in    
Wind  
Wind Speed 2 mph (ENE)    
Max Wind Speed 7 mph    
Max Gust Speed -    
Visibility 1 miles    
Events Fog    
Averages and records for this station are not official NWS values.
T = Trace of Precipitation, MM = Missing Value Source: NWS Daily Summary

Daily Weather History Graph

Daily Weather History Graph

Search for Another Location

Airport or City:

Trip Planner

Search our weather history database for the weather conditions in past years. The results will help you decide how hot, cold, wet, or windy it might be!

Date:

Astronomy

Dec. 11, 2011 Rise Set
Actual Time 7:03 AM CST 4:47 PM CST
Civil Twilight 6:35 AM CST 5:16 PM CST
Nautical Twilight 6:03 AM CST 5:48 PM CST
Astronomical Twilight 5:31 AM CST 6:19 PM CST
Moon 5:57 PM CST 7:52 AM CST
Length of Visible Light 10h 40m
Length of Day
9h 43m
Full, 99% of the Moon is Illuminated
Dec 11
Full
Dec 17
Last Quarter
Dec 24
New
Jan 1
First Quarter
Jan 9
Full

Hourly Weather History & Observations

Time (CST) Temp. Windchill Dew Point Humidity Pressure Visibility Wind Dir Wind Speed Gust Speed Precip Events Conditions
12:15 AM 26.6 °F - 26.6 °F 100% 30.54 in - Calm Calm - N/A   Unknown
12:35 AM 26.6 °F - 26.6 °F 100% 30.54 in - Calm Calm - N/A   Unknown
12:55 AM 28.4 °F - 26.6 °F 93% 30.54 in - Calm Calm - N/A   Unknown
1:15 AM 28.4 °F - 26.6 °F 93% 30.54 in - Calm Calm - N/A   Unknown
1:35 AM 28.4 °F - 26.6 °F 93% 30.54 in - Calm Calm - N/A   Unknown
1:55 AM 28.4 °F - 26.6 °F 93% 30.54 in - Calm Calm - N/A   Unknown
2:15 AM 28.4 °F - 26.6 °F 93% 30.55 in - Calm Calm - N/A   Unknown
2:35 AM 28.4 °F - 26.6 °F 93% 30.55 in - Calm Calm - N/A   Unknown
2:55 AM 28.4 °F 24.6 °F 26.6 °F 93% 30.55 in - NE 3.5 mph - N/A   Unknown
3:15 AM 28.4 °F 23.3 °F 26.6 °F 93% 30.55 in - NE 4.6 mph - N/A   Unknown
3:35 AM 28.4 °F - 26.6 °F 93% 30.55 in - Calm Calm - N/A   Unknown
3:55 AM 26.6 °F - 26.6 °F 100% 30.54 in - Calm Calm - N/A   Unknown
4:15 AM 26.6 °F - 24.8 °F 93% 30.54 in - Calm Calm - N/A   Unknown
4:35 AM 26.6 °F 21.2 °F 26.6 °F 100% 30.53 in - North 4.6 mph - N/A   Unknown
4:55 AM 26.6 °F 19.1 °F 26.6 °F 100% 30.53 in - North 6.9 mph - N/A   Unknown
5:15 AM 26.6 °F 21.2 °F 26.6 °F 100% 30.53 in - North 4.6 mph - N/A   Unknown
5:35 AM 26.6 °F 22.6 °F 26.6 °F 100% 30.53 in - North 3.5 mph - N/A   Unknown
5:55 AM 26.6 °F 21.2 °F 26.6 °F 100% 30.53 in - North 4.6 mph - N/A   Unknown
6:15 AM 26.6 °F 19.1 °F 24.8 °F 93% 30.53 in - North 6.9 mph - N/A   Unknown
6:35 AM 26.6 °F 21.2 °F 24.8 °F 93% 30.53 in - North 4.6 mph - N/A   Unknown
6:55 AM 26.6 °F 20.0 °F 24.8 °F 93% 30.53 in - NNE 5.8 mph - N/A   Unknown
7:15 AM 26.6 °F 21.2 °F 26.6 °F 100% 30.53 in - ENE 4.6 mph - N/A   Unknown
7:35 AM 26.6 °F 22.6 °F 24.8 °F 93% 30.54 in 0.5 mi East 3.5 mph - N/A Fog Light Freezing Fog
7:55 AM 28.4 °F - 26.6 °F 93% 30.55 in - Calm Calm - N/A   Unknown
8:15 AM 28.4 °F - 26.6 °F 93% 30.55 in - Calm Calm - N/A   Unknown
8:35 AM 32.0 °F - 26.6 °F 80% 30.56 in - Calm Calm - N/A   Clear
9:15 AM 32.0 °F 28.7 °F 26.6 °F 80% 30.56 in - SSE 3.5 mph - N/A   Clear
9:35 AM 33.8 °F 30.8 °F 24.8 °F 70% 30.56 in - SE 3.5 mph - N/A   Clear
9:55 AM 35.6 °F 32.8 °F 26.6 °F 70% 30.57 in - ESE 3.5 mph - N/A   Clear
10:15 AM 35.6 °F 32.8 °F 24.8 °F 65% 30.56 in - East 3.5 mph - N/A   Clear
10:35 AM 37.4 °F 34.9 °F 24.8 °F 60% 30.56 in - SE 3.5 mph - N/A   Clear
10:55 AM 37.4 °F 33.8 °F 24.8 °F 60% 30.56 in - SSE 4.6 mph - N/A   Clear
11:15 AM 37.4 °F 34.9 °F 24.8 °F 60% 30.55 in - ESE 3.5 mph - N/A   Clear
11:35 AM 39.2 °F - 24.8 °F 56% 30.53 in - Calm Calm - N/A   Clear
11:55 AM 39.2 °F 35.9 °F 23.0 °F 52% 30.51 in - ESE 4.6 mph - N/A   Clear
12:15 PM 39.2 °F 35.9 °F 24.8 °F 56% 30.49 in - SE 4.6 mph - N/A   Clear
12:35 PM 39.2 °F 37.0 °F 24.8 °F 56% 30.48 in - SSE 3.5 mph - N/A   Clear
12:55 PM 41.0 °F 38.0 °F 24.8 °F 53% 30.48 in - South 4.6 mph - N/A   Clear
1:15 PM 41.0 °F 39.0 °F 24.8 °F 53% 30.47 in - SSE 3.5 mph - N/A   Clear
1:35 PM 41.0 °F 39.0 °F 24.8 °F 53% 30.46 in - SSE 3.5 mph - N/A   Clear
1:55 PM 42.8 °F 41.1 °F 24.8 °F 49% 30.45 in - East 3.5 mph - N/A   Clear
2:15 PM 41.0 °F 38.0 °F 23.0 °F 49% 30.45 in - East 4.6 mph - N/A   Clear
2:35 PM 42.8 °F - 23.0 °F 46% 30.44 in - Calm Calm - N/A   Clear
2:55 PM 42.8 °F 41.1 °F 24.8 °F 49% 30.44 in - NW 3.5 mph - N/A   Clear
3:35 PM 42.8 °F 40.1 °F 26.6 °F 53% 30.43 in 0.8 mi North 4.6 mph - N/A   Haze
3:55 PM 42.8 °F 41.1 °F 26.6 °F 53% 30.43 in - NNE 3.5 mph - N/A   Clear
4:15 PM 41.0 °F 39.0 °F 28.4 °F 61% 30.43 in - ENE 3.5 mph - N/A   Clear
4:35 PM 39.2 °F - 30.2 °F 70% 30.42 in - Calm Calm - N/A   Clear
4:55 PM 39.2 °F 37.0 °F 30.2 °F 70% 30.42 in - ENE 3.5 mph - N/A   Clear
5:15 PM 39.2 °F 35.9 °F 30.2 °F 70% 30.42 in - ENE 4.6 mph - N/A   Clear
5:35 PM 37.4 °F 32.8 °F 30.2 °F 75% 30.41 in - ENE 5.8 mph - N/A   Clear
5:55 PM 37.4 °F 32.8 °F 30.2 °F 75% 30.41 in - ENE 5.8 mph - N/A   Clear
6:15 PM 35.6 °F 30.7 °F 28.4 °F 75% 30.42 in - ENE 5.8 mph - N/A   Clear
6:35 PM 35.6 °F 31.7 °F 28.4 °F 75% 30.42 in - East 4.6 mph - N/A   Clear
6:55 PM 35.6 °F 31.7 °F 28.4 °F 75% 30.42 in - East 4.6 mph - N/A   Clear
7:15 PM 35.6 °F 32.8 °F 26.6 °F 70% 30.42 in - ENE 3.5 mph - N/A   Clear
7:35 PM 35.6 °F 31.7 °F 28.4 °F 75% 30.42 in - ENE 4.6 mph - N/A   Clear
7:55 PM 35.6 °F 32.8 °F 28.4 °F 75% 30.42 in - ENE 3.5 mph - N/A   Clear
8:15 PM 35.6 °F 32.8 °F 28.4 °F 75% 30.42 in - ENE 3.5 mph - N/A   Clear
8:35 PM 32.0 °F - 28.4 °F 87% 30.42 in - Calm Calm - N/A   Unknown
8:55 PM 32.0 °F - 28.4 °F 87% 30.42 in - Calm Calm - N/A   Unknown
9:15 PM 32.0 °F - 28.4 °F 87% 30.42 in - Calm Calm - N/A   Unknown
9:35 PM 32.0 °F - 28.4 °F 87% 30.43 in - Calm Calm - N/A   Unknown
9:55 PM 32.0 °F 28.7 °F 28.4 °F 87% 30.43 in - North 3.5 mph - N/A   Unknown
10:15 PM 32.0 °F 28.7 °F 28.4 °F 87% 30.42 in - NE 3.5 mph - N/A   Unknown
10:35 PM 32.0 °F 28.7 °F 26.6 °F 80% 30.42 in - NE 3.5 mph - N/A   Clear
10:55 PM 32.0 °F 28.7 °F 26.6 °F 80% 30.41 in - North 3.5 mph - N/A   Clear
11:15 PM 28.4 °F 24.6 °F 26.6 °F 93% 30.41 in - North 3.5 mph - N/A   Unknown
11:35 PM 32.0 °F 28.7 °F 28.4 °F 87% 30.40 in - NNE 3.5 mph - N/A   Unknown
11:55 PM 32.0 °F 26.4 °F 28.4 °F 87% 30.40 in - NNE 5.8 mph - N/A   Unknown